Regional Weather Roundup
Issued by NWS Charleston, SC

Current Version | Previous Version | Graphics & Text | Print | Product List | Glossary On
Versions: 1 2 3 4 5 6 7 8 9 10 11 12 13 14 15 16 17 18 19 20 21 22 23 24 25 26 27 28 29 30 31 32 33 34 35 36 37 38 39 40 41 42 43 44 45 46 47 48 49 50
000 ASUS42 KCHS 190923 RWRCHS REGIONAL WEATHER ROUNDUP NATIONAL WEATHER SERVICE CHARLESTON SC 500 AM EDT TUE SEP 19 2017 NOTE: "FAIR" INDICATES FEW OR NO CLOUDS BELOW 12,000 FEET WITH NO SIGNIFICANT WEATHER AND/OR OBSTRUCTIONS TO VISIBILITY. NOT ALL STATIONS ARE QUALITY CONTROLLED. USE DATA WITH CAUTION... ESPECIALLY DEWPOINT OBSERVATIONS. SCZ027-030-031-034>040-042>050-191000- ...SOUTHEAST SOUTH CAROLINA... CITY SKY/WX TMP DP RH WIND PRES REMARKS N CHARLESTON CLEAR 69 69 100 NW3 29.94R WATERFRONT PRK N/A 74 72 93 VRB2 29.78S JOHNS ISLAND FAIR 72 70 94 NW3 29.94R FOG PINOPOLIS N/A 75 70 83 VRB3 29.86S MONCKS CORNER FAIR 64 64 100 CALM 29.94S FOG SUMMERVILLE FAIR 64 64 100 CALM 29.95S BEAUFORT MCAS CLEAR 71 71 100 CALM 29.95R BEAUFORT ARPT FAIR 72 70 94 W3 29.94R HILTON HEAD IS CLEAR 73 72 94 CALM 29.95R WALTERBORO SUNNY 64 64 100 CALM 29.96R ALLENDALE NOT AVBL ...SOUTHERN MIDLANDS AND PEE DEE... CITY SKY/WX TMP DP RH WIND PRES REMARKS GEORGETOWN FAIR 66 64 94 CALM 29.95R KINGSTREE FAIR 61 61 100 CALM 29.95S ORANGEBURG CLEAR 67 66 97 NE3 29.96R BARNWELL FAIR 66 66 100 CALM 29.96S AIKEN FAIR 63 63 100 CALM 30.00S MANNING FAIR 64 57 77 CALM 29.95S COLUMBIA CLEAR 67 64 90 CALM 29.96R SUMTER CLEAR 67 63 87 NE3 29.94R FLORENCE CLEAR 66 65 96 N6 29.96R MYRTLE BEACH CLEAR 69 67 93 N3 29.95R N MYRTLE BEACH CLEAR 69 67 93 N3 29.92S $$ GAZ063-065-086>088-099>101-113>116-118-119-134>141-150-191000- ...SOUTHEAST GEORGIA... CITY SKY/WX TMP DP RH WIND PRES REMARKS SAVANNAH ARPT CLEAR 72 69 90 CALM 29.95R HUNTER AAF CLEAR 70 68 94 CALM 29.92R FORT STEWART CLEAR 69 67 93 CALM 29.93R STATESBORO CLEAR 69 69 100 CALM 29.95R SYLVANIA SUNNY 68 68 100 CALM 29.96R FOG CLAXTON FAIR 68 68 98 CALM 29.95S ...CSRA...CENTRAL AND FAR SOUTHEAST GEORGIA... CITY SKY/WX TMP DP RH WIND PRES REMARKS THOMSON CLEAR 65 64 96 CALM 30.01S AUGUSTA-BUSH PTCLDY 67 65 93 CALM 29.95R FOG AUGUSTA-DANIEL CLEAR 74 68 81 CALM 29.96S SWAINSBORO FAIR 68 68 100 CALM 29.96S VIDALIA PTCLDY 70 68 94 SW3 29.96R EASTMAN N/A 68 68 99 CALM 29.98R FOG HAZLEHURST FAIR 73 63 72 SW3 29.95R ALMA CLOUDY 69 67 93 CALM 29.95R WAYCROSS CLEAR 69 66 90 CALM 29.95R JESUP NOT AVBL BAXLEY FAIR 68 68 100 CALM 29.96R BRUNSWICK PTCLDY 68 66 94 CALM 29.95S FOG SAINT SIMONS CLEAR 73 71 93 CALM 29.94R $$ SCZ027-028-034-036>038-045-046-048>050-GAZ119-141-191000- ...LAKE AND SUPPLEMENTAL COASTAL OBSERVATIONS... STATION/POSITION TIME TEMP WIND PRES WAVE SWELL AIR SEA DIR/SP/G HT/PER HT/PER/DIR (UTC) (F) (DEG/KT/KT) (MB) (FT/S) (FT/S/D) WINYAH BAY NOT AVBL LAKE MURRAY 0820 70 CALM 1013.9R ACE BASIN NERRS 0745 71 CALM 1014.0 FORT PULASKI 0848 74 78 280/ 1/ 3 1014.3R SAPELO ISLAND 0800 74 CALM 1014.0 $$ ANZ835-935-AMZ111-154-330-350-352-354-370-450-454-472-191000- ...C-MAN AND BUOY OBSERVATIONS... STATION/POSITION TIME TEMP WIND PRES WAVE SWELL AIR SEA DIR/SP/G HT/PER HT/PER/DIR (UTC) (F) (DEG/KT/KT) (MB) (FT/S) (FT/S/D) BUOY 41004 0850 77 82 310/ 6/ 8 1012.7R 6/11 5/ 90/11 BUOY 41008 0850 78 80 250/ 4/ 6 1013.6R 4/12 3/ 60/12 FOLLY BEACH CMAN 0900 73 300/ 4/ 5 1014.4R CAPERS NEARSHORE 0808 73 79 310/ 8/ 12 1013.2F FRIPP NEARSHORE 0808 77 290/ 6/ 8 1020.3F STATION/POSITION TIME TEMP WIND PRES WAVE SWELL AIR SEA DIR/SP/G HT/PER HT/PER/DIR (UTC) (F) (DEG/KT/KT) (MB) (FT/S) (FT/S/D) 5E ST. MARYS GA 0900 81 N/A 3/ 8 2/ 80/11 FRYING PAN BUOY 0900 76 81 330/ 12/ 16 1012.0 BUOY 41025 0850 74 77 340/ 27/ 33 1006.4F 13/12 11/ 80/12 CAPE LOOKOUT NC 0900 72 330/ 13/ 18 1010.4R BUOY 41002 0850 80 80 300/ 16/ 19 1010.1R 10/ 9 8/ 30/ 9 BUOY 41010 0900 84 10/ 6/ 8 1012.9 ST AUGUSTINE FL 0900 80 81 70/ 5/ 6 1014.0S $$

USA.gov is the U.S. government's official web portal to all federal, state and local government web resources and services.